User: anonymous   Login
Location: *
(90.0000°N, 180.0000°W)
Time: 14:12:12
(UTC+02:00)
Language:

Cosmos 1825 - Orbit

View from above orbital plane
View from above orbital plane
View from above satellite
View from above satellite

Ground track
Ground track

The orbit data is extracted from the following two-line orbital elements,

1 17566U 87024A   16240.19557785  .00000885  00000-0  41954-4 0  9994
2 17566  82.5039 221.4714 0004979 138.9338 221.2271 15.17993784609230
Epoch (UTC): 27 August 2016 04:41:37
Eccentricity: 0.0004979
inclination: 82.5039°
perigee height: 508 km
apogee height: 515 km
right ascension of ascending node: 221.4714°
argument of perigee: 138.9338°
revolutions per day: 15.17993784
mean anomaly at epoch: 221.2271°
orbit number at epoch: 60923

The dashed part of the orbit path shows where the satellite is in the earth's shadow,  

DLR